Weather Roundup
Issued by NWS

Home | Current Version | Previous Version | Graphics & Text | Print | Product List | Glossary Off
Versions: 1 2 3 4 5 6 7 8 9 10 11 12 13 14 15 16 17 18 19 20 21 22 23 24 25 26 27 28 29 30 31 32 33 34 35 36 37 38 39 40 41 42 43 44 45 46 47 48 49 50

000
NZUS93 KARX 121010
HRRWXR

CURRENT HOURLY OBSERVATIONS ACROSS
MUCH OF THE UPPER MISSISSIPPI VALLEY
NATIONAL WEATHER SERVICE LA CROSSE WI
500 AM CDT SAT JUL 12 2014


...SOUTHEAST MINNESOTA...


CITY           SKY/WX    TMP DP  RH WIND       PRES   REMARKS
ROCHESTER      CLOUDY    67  65  93 S6        30.06R FOG
ROCHESTER/MAYO FAIR      68  67  95 CALM      30.05R
WINONA         MOCLDY    70  68  94 CALM      30.02R
AUSTIN         CLOUDY    70  68  94 SW3       30.06R FOG
ALBERT LEA     CLOUDY    70  68  94 SW6       30.06R FOG
DODGE CENTER   CLOUDY    68  66  94 SW8       30.05R FOG
PRESTON        CLOUDY    68  67  97 CALM      30.06R FOG
OWATONNA       CLOUDY    70  66  88 S7        30.05R FOG
FARIBAULT      CLOUDY    72  66  83 S6        30.03R HAZE
$$

...ELSEWHERE IN MINNESOTA...


CITY           SKY/WX    TMP DP  RH WIND       PRES   REMARKS
MINNEAPOLIS    CLOUDY    71  69  93 S5        30.00R
INTNL FALLS    CLEAR     48  47  96 CALM      29.98S
DULUTH         MOCLDY    63  60  90 NW7       29.99R
RED WING       PTCLDY    70  66  88 CALM      30.00R
REDWOOD FALLS  CLOUDY    72  71  97 S8        29.99R FOG
MANKATO        CLOUDY    70  66  88 SW5       30.03R
WORTHINGTON    CLOUDY    75  70  83 SW12      30.06F
FAIRMONT       CLOUDY    72  66  83 SW5       30.05S
$$

...SOUTHWEST WISCONSIN...


CITY           SKY/WX    TMP DP  RH WIND       PRES   REMARKS
LA CROSSE      CLOUDY    70  65  84 SE5       30.02R
PRAIRIE DU CHI CLOUDY    69  65  89 CALM      30.02R
BOSCOBEL       PTCLDY    68  65  90 CALM      30.02R
LONE ROCK      MOCLDY    72  65  78 W3        30.03R
PLATTEVILLE    CLEAR     66  64  93 CALM      30.03R
FORT MC COY    CLOUDY    64  62  93 CALM      30.04R
VIROQUA        CLOUDY    68  67  99 CALM      30.05R
WIS DELLS      CLOUDY    69  62  78 CALM      30.03R
$$

...ELSEWHERE IN WISCONSIN...


CITY           SKY/WX    TMP DP  RH WIND       PRES   REMARKS
MILWAUKEE      CLOUDY    71  59  65 S7        30.03F
MADISON        CLOUDY    71  62  73 S6        30.02R
GREEN BAY      CLOUDY    67  60  78 CALM      30.02S
EAU CLAIRE     MOCLDY    68  67  96 CALM      30.00R
BLACK RVR FLS  CLOUDY    67  66  97 CALM      30.01S
MEDFORD        CLOUDY    65  64  94 SW5       30.04R
WAUSAU         CLOUDY    67  62  84 SW3       30.02R
WIS RAPIDS     CLOUDY    68  63  84 SW5       30.04R
MARSHFIELD     CLOUDY    67  64  90 SW6       30.04R
RICE LAKE      FOG       62  61  96 CALM      30.02R VSB 1
$$

...NORTHEAST IOWA...


CITY           SKY/WX    TMP DP  RH WIND       PRES   REMARKS
WATERLOO       LGT RAIN  70  69  97 NW3       30.02R FOG
DUBUQUE        MOCLDY    67  66  97 S3        30.02R
DECORAH          N/A    N/A N/A N/A MISG        N/A
MASON CITY     CLOUDY    71  70  96 W8        30.08R
CHARLES CITY   CLOUDY    68  66  94 W6        30.05S FOG
OELWEIN        CLOUDY    68  68 100 W3        30.04R FOG
$$

...ELSEWHERE IN IOWA...


CITY           SKY/WX    TMP DP  RH WIND       PRES   REMARKS
DES MOINES     LGT RAIN  73  69  87 N9        30.03F
IOWA CITY      TSTM      72  71  97 SW12      30.01S FOG
FORT DODGE     CLOUDY    70  66  88 CALM      30.06F
MARSHALLTOWN   TSTM      70  69  97 NW8       30.05R FOG
CEDAR RAPIDS   TSTM      69  67  93 W20G46    30.04R VSB 1/4
$$

...NORTHERN ILLINOIS...


CITY           SKY/WX    TMP DP  RH WIND       PRES   REMARKS
CHICAGO-OHARE  MOCLDY    73  59  61 S8        30.03F
DUPAGE         CLOUDY    72  61  68 SE8       30.03F
CHICAGO-MIDWAY MOCLDY    76  61  59 S7        30.04F
MOLINE         CLOUDY    74  69  85 SW3       30.00R
ROCKFORD       MOCLDY    70  62  76 SE6       30.03S
STERLING       MOCLDY    72  66  83 CALM      30.01S
PEORIA         MOCLDY    74  68  81 S6        30.02S
$$

NOTE: "FAIR" INDICATES FEW OR NO CLOUDS BELOW 12,000 FEET WITH NO
SIGNIFICANT WEATHER AND/OR OBSTRUCTIONS TO VISIBILITY. WIND
SPEEDS ARE IN MILES-PER-HOUR.



USA.gov is the U.S. government's official web portal to all federal, state and local government web resources and services.